Retour au catalogue

CZ-6A DEB

ActifPO
NORAD 61485·DEBRIS·🇨🇳 China

Lancé Aug 6, 2024 depuis Taiyuan Satellite Launch Center

Loading…

Prochains Passages (prochaines 24 heures)

TLE

FraisSource: Space-Track

Époque: Sep 13, 2026, 09:52 UTC

1 61485U 24140AAT 26256.41163599  .00000330  00000-0  20579-3 0  9996
2 61485  88.7746 248.6325 0147799 347.1271  12.6148 13.97365955102545

Suivez CZ-6A DEB en temps réel avec AllMySat

Download on the App Store